| time (UTC) | temp C | wind direction | speed KPH | gust KPH | rain 1hr cm | rain 24hr cm | rain mn cm | humidity % | barometer mb |
| 20260503195847 | 29 | 83 | 3.2 | 4.8 | 0.43 | 0.43 | 0.00 | 34 | 1012.9 |
| 20260503195640 | 29 | 98 | 6.4 | 8.0 | 0.43 | 0.43 | 0.00 | 32 | 1012.9 |
| 20260503195618 | 29 | 245 | 9.7 | 12.9 | 0.43 | 0.43 | 0.00 | 32 | 1012.9 |
| 20260503195158 | 28 | 246 | 4.8 | 6.4 | 0.43 | 0.43 | 0.00 | 33 | 1012.9 |
| 20260503194954 | 28 | 310 | 3.2 | 4.8 | 0.43 | 0.43 | 0.00 | 34 | 1013.2 |
| 20260503194932 | 29 | 47 | 9.7 | 11.3 | 0.43 | 0.43 | 0.00 | 32 | 1012.9 |
| 20260503194512 | 29 | 320 | 6.4 | 8.0 | 0.43 | 0.43 | 0.00 | 34 | 1012.9 |
| 20260503194308 | 29 | 315 | 3.2 | 3.2 | 0.43 | 0.43 | 0.00 | 34 | 1012.9 |
| 20260503194104 | 29 | 218 | 3.2 | 6.4 | 0.43 | 0.43 | 0.00 | 33 | 1012.9 |
| 20260503193856 | 28 | 303 | 6.4 | 8.0 | 0.43 | 0.43 | 0.00 | 35 | 1013.2 |
| 20260503193652 | 28 | 47 | 3.2 | 4.8 | 0.43 | 0.43 | 0.00 | 34 | 1013.2 |
| 20260503193448 | 28 | 243 | 3.2 | 3.2 | 0.43 | 0.43 | 0.00 | 35 | 1012.9 |
| 20260503193426 | 28 | 325 | 6.4 | 8.0 | 0.43 | 0.43 | 0.00 | 34 | 1012.9 |
| 20260503193005 | 28 | 84 | 3.2 | 4.8 | 0.43 | 0.43 | 0.00 | 35 | 1012.9 |
| 20260503192757 | 28 | 193 | 3.2 | 3.2 | 0.43 | 0.43 | 0.00 | 34 | 1012.9 |
| 20260503192554 | 28 | 10 | 8.0 | 9.7 | 0.43 | 0.43 | 0.00 | 34 | 1013.2 |
| 20260503192350 | 28 | 225 | 1.6 | 3.2 | 0.43 | 0.43 | 0.00 | 35 | 1012.9 |
| 20260503192146 | 28 | 101 | 3.2 | 3.2 | 0.43 | 0.43 | 0.00 | 35 | 1013.2 |
| 20260503192124 | -17 | 0 | 0.0 | 0.0 | 0.00 | 0.00 | 0.00 | 100 | 1013.2 |
| 20260503175045 | 24 | 191 | 0.0 | 3.2 | 0.00 | 0.00 | 0.00 | 53 | 1012.5 |
| 20260503174625 | 24 | 116 | 1.6 | 3.2 | 0.00 | 0.00 | 0.00 | 54 | 1012.9 |
| 20260503174603 | 24 | 67 | 3.2 | 4.8 | 0.00 | 0.00 | 0.00 | 53 | 1012.9 |
| 20260503174142 | 24 | 111 | 4.8 | 6.4 | 0.00 | 0.00 | 0.00 | 55 | 1012.5 |
| 20260503173938 | 23 | 172 | 4.8 | 6.4 | 0.00 | 0.00 | 0.00 | 54 | 1012.9 |
| 20260503173732 | 23 | 147 | 6.4 | 8.0 | 0.00 | 0.00 | 0.00 | 53 | 1012.5 |
| 20260503173529 | 24 | 117 | 3.2 | 3.2 | 0.00 | 0.00 | 0.00 | 55 | 1012.5 |
| 20260503173507 | 23 | 115 | 3.2 | 3.2 | 0.00 | 0.00 | 0.00 | 54 | 1012.5 |
| 20260503173046 | 23 | 146 | 0.0 | 1.6 | 0.00 | 0.00 | 0.00 | 55 | 1012.5 |
| 20260503173025 | 23 | 135 | 4.8 | 8.0 | 0.00 | 0.00 | 0.00 | 55 | 1012.5 |
| 20260503172748 | 23 | 131 | 4.8 | 6.4 | 0.00 | 0.00 | 0.00 | 55 | 1012.5 |
| 20260503172331 | 23 | 90 | 6.4 | 6.4 | 0.00 | 0.00 | 0.00 | 56 | 1012.5 |
| 20260503172123 | 23 | 159 | 4.8 | 4.8 | 0.00 | 0.00 | 0.00 | 56 | 1012.5 |
| 20260503171918 | 23 | 121 | 4.8 | 4.8 | 0.00 | 0.00 | 0.00 | 55 | 1012.9 |
| 20260503171713 | 23 | 106 | 1.6 | 3.2 | 0.00 | 0.00 | 0.00 | 56 | 1012.9 |
| 20260503171509 | 23 | 96 | 1.6 | 3.2 | 0.00 | 0.00 | 0.00 | 57 | 1012.9 |
| 20260503171305 | 23 | 173 | 1.6 | 3.2 | 0.00 | 0.00 | 0.00 | 58 | 1012.9 |
| 20260503171101 | 23 | 118 | 3.2 | 3.2 | 0.00 | 0.00 | 0.00 | 58 | 1012.5 |
| 20260503170857 | 22 | 154 | 3.2 | 4.8 | 0.00 | 0.00 | 0.00 | 58 | 1012.9 |
| 20260503170653 | 23 | 139 | 6.4 | 8.0 | 0.00 | 0.00 | 0.00 | 58 | 1012.9 |
| 20260503170631 | 22 | 106 | 4.8 | 6.4 | 0.00 | 0.00 | 0.00 | 58 | 1012.9 |
| 20260503170213 | 22 | 198 | 3.2 | 3.2 | 0.00 | 0.00 | 0.00 | 58 | 1012.9 |
| 20260503160207 | 18 | 133 | 1.6 | 3.2 | 0.00 | 0.00 | 0.00 | 71 | 1012.9 |
| 20260503151005 | 16 | 132 | 1.6 | 3.2 | 0.00 | 0.00 | 0.00 | 74 | 1012.9 |
| 20260503150802 | 16 | 141 | 0.0 | 3.2 | 0.00 | 0.00 | 0.00 | 73 | 1013.2 |
| 20260503150555 | 16 | 112 | 0.0 | 1.6 | 0.00 | 0.00 | 0.00 | 73 | 1013.2 |
| 20260503150352 | 16 | 123 | 0.0 | 0.0 | 0.00 | 0.00 | 0.00 | 72 | 1013.2 |
| 20260503150143 | 16 | 114 | 0.0 | 0.0 | 0.00 | 0.00 | 0.00 | 72 | 1013.2 |
| 20260503140230 | 11 | 162 | 0.0 | 1.6 | 0.00 | 0.00 | 0.00 | 85 | 1012.9 |
| 20260503131245 | 10 | 184 | 0.0 | 0.0 | 0.00 | 0.00 | 0.00 | 87 | 1012.9 |
| 20260503131042 | 10 | 177 | 0.0 | 0.0 | 0.00 | 0.00 | 0.00 | 87 | 1012.9 |
| 20260503130838 | 10 | 146 | 0.0 | 0.0 | 0.00 | 0.00 | 0.00 | 87 | 1012.5 |
| 20260503130816 | 10 | 143 | 0.0 | 0.0 | 0.00 | 0.00 | 0.00 | 87 | 1012.9 |
| 20260503130540 | 10 | 214 | 0.0 | 0.0 | 0.00 | 0.00 | 0.00 | 87 | 1012.9 |
| 20260503130122 | 10 | 155 | 0.0 | 0.0 | 0.00 | 0.00 | 0.00 | 87 | 1012.5 |
| 20260503110754 | 11 | 231 | 0.0 | 0.0 | 0.00 | 0.00 | 0.00 | 87 | 1012.9 |
| 20260503110551 | 11 | 195 | 0.0 | 0.0 | 0.00 | 0.00 | 0.00 | 86 | 1012.9 |
| 20260503110347 | 11 | 154 | 0.0 | 0.0 | 0.00 | 0.00 | 0.00 | 87 | 1013.2 |
| 20260503110143 | 11 | 154 | 0.0 | 1.6 | 0.00 | 0.00 | 0.00 | 87 | 1012.9 |
| 20260503100249 | 11 | 178 | 0.0 | 1.6 | 0.00 | 0.00 | 0.00 | 86 | 1013.2 |
| 20260503090308 | 12 | 200 | 0.0 | 0.0 | 0.00 | 0.00 | 0.00 | 85 | 1013.5 |
| 20260503081521 | 12 | 200 | 0.0 | 0.0 | 0.00 | 0.00 | 0.00 | 84 | 1013.9 |
| 20260503081315 | 12 | 189 | 0.0 | 1.6 | 0.00 | 0.00 | 0.00 | 84 | 1014.2 |
| 20260503081111 | 12 | 164 | 0.0 | 0.0 | 0.00 | 0.00 | 0.00 | 84 | 1013.9 |
| 20260503081050 | 12 | 205 | 0.0 | 0.0 | 0.00 | 0.00 | 0.00 | 84 | 1013.9 |
| 20260503080632 | 12 | 206 | 0.0 | 0.0 | 0.00 | 0.00 | 0.00 | 84 | 1013.9 |
| 20260503080426 | 12 | 221 | 0.0 | 0.0 | 0.00 | 0.00 | 0.00 | 84 | 1013.9 |
| 20260503080220 | 12 | 221 | 0.0 | 0.0 | 0.00 | 0.00 | 0.00 | 83 | 1013.9 |
| 20260503072812 | 13 | 194 | 0.0 | 0.0 | 0.00 | 0.00 | 0.00 | 82 | 1013.9 |
| 20260503072608 | 13 | 214 | 0.0 | 0.0 | 0.00 | 0.00 | 0.00 | 81 | 1013.9 |
| 20260503072546 | 13 | 217 | 1.6 | 3.2 | 0.00 | 0.00 | 0.00 | 82 | 1013.9 |
| 20260503072128 | 13 | 235 | 0.0 | 0.0 | 0.00 | 0.00 | 0.00 | 82 | 1013.9 |
| 20260503071924 | 13 | 206 | 0.0 | 0.0 | 0.00 | 0.00 | 0.00 | 81 | 1014.2 |
| 20260503071720 | 13 | 219 | 0.0 | 1.6 | 0.00 | 0.00 | 0.00 | 81 | 1014.2 |
| 20260503071517 | 13 | 224 | 0.0 | 1.6 | 0.00 | 0.00 | 0.00 | 81 | 1014.2 |
| 20260503071455 | 13 | 194 | 0.0 | 1.6 | 0.00 | 0.00 | 0.00 | 81 | 1013.9 |
| 20260503071036 | 13 | 106 | 0.0 | 1.6 | 0.00 | 0.00 | 0.00 | 81 | 1013.9 |
| 20260503070829 | 13 | 111 | 0.0 | 1.6 | 0.00 | 0.00 | 0.00 | 81 | 1013.9 |
| 20260503070623 | 13 | 116 | 1.6 | 3.2 | 0.00 | 0.00 | 0.00 | 81 | 1013.5 |
| 20260503070418 | 13 | 109 | 1.6 | 3.2 | 0.00 | 0.00 | 0.00 | 80 | 1013.5 |
| 20260503070213 | 14 | 125 | 1.6 | 3.2 | 0.00 | 0.00 | 0.00 | 80 | 1013.9 |
| 20260503060256 | 14 | 211 | 1.6 | 3.2 | 0.00 | 0.43 | 0.00 | 79 | 1013.9 |
| 20260503055022 | 15 | 126 | 0.0 | 1.6 | 0.00 | 0.43 | 0.00 | 78 | 1013.5 |
| 20260503054812 | 15 | 117 | 1.6 | 3.2 | 0.00 | 0.43 | 0.00 | 78 | 1013.9 |
| 20260503054606 | 15 | 226 | 0.0 | 0.0 | 0.00 | 0.43 | 0.00 | 78 | 1013.9 |
| 20260503054400 | 15 | 222 | 0.0 | 1.6 | 0.00 | 0.43 | 0.00 | 78 | 1013.9 |
| 20260503054338 | 15 | 217 | 0.0 | 0.0 | 0.00 | 0.43 | 0.00 | 77 | 1013.9 |
| 20260503053917 | 15 | 222 | 0.0 | 0.0 | 0.00 | 0.43 | 0.00 | 77 | 1013.9 |
| 20260503053855 | 15 | 233 | 1.6 | 3.2 | 0.00 | 0.43 | 0.00 | 77 | 1013.9 |
| 20260503053620 | 15 | 221 | 0.0 | 0.0 | 0.00 | 0.43 | 0.00 | 77 | 1014.2 |
| 20260503053200 | 15 | 190 | 0.0 | 0.0 | 0.00 | 0.43 | 0.00 | 76 | 1013.9 |
| 20260503053138 | 15 | 185 | 0.0 | 0.0 | 0.00 | 0.43 | 0.00 | 76 | 1013.9 |
| 20260503052901 | 15 | 209 | 0.0 | 0.0 | 0.00 | 0.43 | 0.00 | 76 | 1013.9 |
| 20260503052441 | 15 | 223 | 0.0 | 0.0 | 0.00 | 0.43 | 0.00 | 76 | 1013.9 |
| 20260503052236 | 15 | 221 | 0.0 | 1.6 | 0.00 | 0.43 | 0.00 | 76 | 1013.9 |
| 20260503052031 | 15 | 229 | 1.6 | 3.2 | 0.00 | 0.43 | 0.00 | 76 | 1013.9 |
| 20260503052010 | 16 | 227 | 1.6 | 3.2 | 0.00 | 0.43 | 0.00 | 76 | 1014.2 |
| 20260503051547 | 16 | 210 | 1.6 | 3.2 | 0.00 | 0.43 | 0.00 | 75 | 1014.2 |
| 20260503051341 | 16 | 202 | 0.0 | 0.0 | 0.00 | 0.43 | 0.00 | 75 | 1014.2 |
| 20260503051137 | 16 | 222 | 0.0 | 1.6 | 0.00 | 0.43 | 0.00 | 75 | 1014.2 |
| 20260503050933 | 16 | 203 | 3.2 | 3.2 | 0.00 | 0.43 | 0.00 | 75 | 1014.2 |
| 20260503050729 | 16 | 152 | 0.0 | 0.0 | 0.00 | 0.43 | 0.00 | 75 | 1014.2 |
| 20260503050707 | 16 | 143 | 0.0 | 1.6 | 0.00 | 0.43 | 0.00 | 75 | 1013.9 |
| 20260503050250 | 16 | 168 | 0.0 | 1.6 | 0.00 | 0.43 | 0.00 | 75 | 1013.9 |
| 20260503050045 | 16 | 194 | 0.0 | 0.0 | 0.00 | 0.43 | 0.00 | 74 | 1013.5 |
| 20260503045841 | 16 | 140 | 0.0 | 1.6 | 0.00 | 0.43 | 0.00 | 75 | 1013.5 |
| 20260503045637 | 16 | 135 | 0.0 | 1.6 | 0.00 | 0.43 | 0.00 | 74 | 1013.9 |
| 20260503045433 | 16 | 140 | 4.8 | 4.8 | 0.00 | 0.43 | 0.00 | 74 | 1013.5 |
| 20260503045229 | 16 | 132 | 3.2 | 3.2 | 0.00 | 0.43 | 0.00 | 74 | 1013.9 |
| 20260503045025 | 16 | 124 | 3.2 | 4.8 | 0.00 | 0.43 | 0.00 | 74 | 1013.5 |
| 20260503044819 | 16 | 110 | 3.2 | 3.2 | 0.00 | 0.43 | 0.00 | 73 | 1013.5 |
| 20260503044615 | 16 | 144 | 0.0 | 0.0 | 0.00 | 0.43 | 0.00 | 73 | 1013.5 |
| 20260503044553 | 16 | 135 | 0.0 | 1.6 | 0.00 | 0.43 | 0.00 | 73 | 1013.5 |
| 20260503044133 | 16 | 230 | 1.6 | 3.2 | 0.00 | 0.43 | 0.00 | 72 | 1013.5 |
| 20260503043928 | 16 | 163 | 6.4 | 8.0 | 0.00 | 0.43 | 0.00 | 72 | 1013.5 |
| 20260503040053 | 17 | 233 | 3.2 | 3.2 | 0.00 | 0.43 | 0.00 | 71 | 1013.5 |
| 20260503040029 | 17 | 243 | 3.2 | 3.2 | 0.00 | 0.43 | 0.00 | 70 | 1013.5 |
| 20260503035610 | 17 | 226 | 1.6 | 3.2 | 0.00 | 0.43 | 0.00 | 70 | 1013.2 |
| 20260503035406 | 17 | 136 | 3.2 | 4.8 | 0.00 | 0.43 | 0.00 | 70 | 1013.5 |
| 20260503035200 | 17 | 214 | 0.0 | 0.0 | 0.00 | 0.43 | 0.00 | 70 | 1013.5 |
| 20260503034956 | 17 | 230 | 1.6 | 1.6 | 0.00 | 0.43 | 0.00 | 70 | 1013.2 |
| 20260503034752 | 17 | 205 | 0.0 | 0.0 | 0.00 | 0.43 | 0.00 | 69 | 1013.2 |
| 20260503034546 | 17 | 109 | 0.0 | 1.6 | 0.00 | 0.43 | 0.00 | 69 | 1013.2 |
| 20260503034524 | 17 | 229 | 0.0 | 1.6 | 0.00 | 0.43 | 0.00 | 69 | 1013.2 |
| 20260503034106 | 17 | 100 | 1.6 | 3.2 | 0.00 | 0.43 | 0.00 | 68 | 1013.2 |
| 20260503033858 | 17 | 150 | 0.0 | 1.6 | 0.00 | 0.43 | 0.00 | 68 | 1013.2 |
| 20260503033654 | 17 | 135 | 0.0 | 1.6 | 0.00 | 0.43 | 0.00 | 68 | 1013.2 |
| 20260503033450 | 17 | 121 | 1.6 | 3.2 | 0.00 | 0.43 | 0.00 | 68 | 1013.2 |
| 20260503033246 | 17 | 146 | 3.2 | 3.2 | 0.00 | 0.43 | 0.00 | 67 | 1012.9 |
| 20260503033042 | 17 | 163 | 3.2 | 3.2 | 0.00 | 0.43 | 0.00 | 68 | 1012.9 |
| 20260503032833 | 17 | 197 | 0.0 | 1.6 | 0.00 | 0.43 | 0.00 | 67 | 1012.9 |
| 20260503032629 | 18 | 212 | 0.0 | 1.6 | 0.00 | 0.43 | 0.00 | 67 | 1012.9 |
| 20260503032425 | 18 | 240 | 3.2 | 4.8 | 0.00 | 0.43 | 0.00 | 67 | 1012.9 |
| 20260503032220 | 18 | 76 | 1.6 | 3.2 | 0.00 | 0.43 | 0.00 | 67 | 1012.9 |
| 20260503032016 | 18 | 170 | 3.2 | 3.2 | 0.00 | 0.43 | 0.00 | 66 | 1012.9 |
| 20260503031807 | 18 | 129 | 1.6 | 3.2 | 0.00 | 0.43 | 0.00 | 66 | 1013.2 |
| 20260503031745 | 18 | 140 | 1.6 | 3.2 | 0.00 | 0.43 | 0.00 | 66 | 1012.9 |
| 20260503031324 | 18 | 80 | 3.2 | 3.2 | 0.00 | 0.43 | 0.00 | 66 | 1013.2 |
| 20260503031117 | 18 | 98 | 1.6 | 3.2 | 0.00 | 0.43 | 0.00 | 66 | 1012.9 |
| 20260503030912 | 18 | 58 | 4.8 | 4.8 | 0.00 | 0.43 | 0.00 | 66 | 1012.9 |
| 20260503030708 | 18 | 38 | 3.2 | 3.2 | 0.00 | 0.43 | 0.00 | 66 | 1012.9 |
| 20260503030645 | 18 | 236 | 0.0 | 0.0 | 0.00 | 0.43 | 0.00 | 66 | 1012.9 |
| 20260503030229 | 18 | 280 | 0.0 | 3.2 | 0.00 | 0.43 | 0.00 | 65 | 1012.9 |
| 20260503030022 | 18 | 140 | 3.2 | 4.8 | 0.00 | 0.43 | 0.00 | 65 | 1012.9 |
| 20260503025818 | 18 | 336 | 1.6 | 3.2 | 0.00 | 0.43 | 0.00 | 65 | 1012.9 |
| 20260503025611 | 18 | 270 | 0.0 | 1.6 | 0.00 | 0.43 | 0.00 | 66 | 1012.9 |
| 20260503025405 | 18 | 132 | 1.6 | 3.2 | 0.00 | 0.43 | 0.00 | 66 | 1013.2 |
| 20260503025201 | 18 | 230 | 1.6 | 3.2 | 0.00 | 0.43 | 0.00 | 66 | 1013.2 |
| 20260503024955 | 18 | 220 | 0.0 | 0.0 | 0.00 | 0.43 | 0.00 | 66 | 1013.2 |
| 20260503024747 | 18 | 250 | 4.8 | 6.4 | 0.00 | 0.43 | 0.00 | 66 | 1012.9 |
| 20260503024542 | 18 | 239 | 1.6 | 3.2 | 0.00 | 0.43 | 0.00 | 66 | 1013.2 |
| 20260503024338 | 18 | 234 | 3.2 | 3.2 | 0.00 | 0.43 | 0.00 | 66 | 1013.5 |
| 20260503024134 | 18 | 229 | 0.0 | 3.2 | 0.00 | 0.43 | 0.00 | 66 | 1013.2 |
| 20260503023930 | 18 | 215 | 0.0 | 0.0 | 0.00 | 0.43 | 0.00 | 66 | 1013.2 |
| 20260503023726 | 18 | 133 | 0.0 | 0.0 | 0.00 | 0.43 | 0.00 | 66 | 1013.5 |
| 20260503023704 | 18 | 229 | 1.6 | 3.2 | 0.00 | 0.43 | 0.00 | 66 | 1013.5 |
| 20260503023243 | 18 | 211 | 0.0 | 1.6 | 0.00 | 0.43 | 0.00 | 66 | 1013.5 |
| 20260503023221 | 18 | 256 | 6.4 | 6.4 | 0.00 | 0.43 | 0.00 | 66 | 1013.5 |
| 20260503022802 | 18 | 242 | 4.8 | 6.4 | 0.00 | 0.43 | 0.00 | 66 | 1013.9 |
| 20260503022558 | 18 | 251 | 1.6 | 3.2 | 0.00 | 0.43 | 0.00 | 65 | 1014.2 |
| 20260503022536 | 18 | 129 | 1.6 | 3.2 | 0.00 | 0.43 | 0.00 | 65 | 1014.2 |
| 20260503022114 | 18 | 204 | 0.0 | 3.2 | 0.00 | 0.43 | 0.00 | 65 | 1014.2 |
| 20260503021907 | 18 | 202 | 1.6 | 3.2 | 0.00 | 0.43 | 0.00 | 65 | 1014.2 |
| 20260503021703 | 18 | 114 | 3.2 | 4.8 | 0.00 | 0.43 | 0.00 | 65 | 1014.2 |
| 20260503021455 | 18 | 161 | 8.0 | 9.7 | 0.00 | 0.43 | 0.00 | 64 | 1014.2 |
| 20260503021251 | 18 | 176 | 1.6 | 3.2 | 0.00 | 0.43 | 0.00 | 64 | 1014.2 |
| 20260503021046 | 18 | 83 | 1.6 | 4.8 | 0.00 | 0.43 | 0.00 | 64 | 1014.6 |
| 20260503020841 | 18 | 151 | 4.8 | 4.8 | 0.00 | 0.43 | 0.00 | 64 | 1014.6 |
| 20260503020634 | 18 | 183 | 4.8 | 8.0 | 0.00 | 0.43 | 0.00 | 64 | 1014.6 |
| 20260503020428 | 18 | 123 | 4.8 | 4.8 | 0.00 | 0.43 | 0.00 | 64 | 1014.6 |
| 20260503020222 | 18 | 121 | 6.4 | 8.0 | 0.00 | 0.43 | 0.00 | 64 | 1014.6 |
| 20260503020018 | 18 | 103 | 9.7 | 12.9 | 0.00 | 0.43 | 0.00 | 64 | 1014.6 |
| 20260503015813 | 18 | 148 | 4.8 | 8.0 | 0.00 | 0.43 | 0.00 | 64 | 1014.6 |
| 20260503015606 | 18 | 131 | 6.4 | 8.0 | 0.00 | 0.43 | 0.00 | 65 | 1014.6 |
| 20260503015401 | 18 | 140 | 1.6 | 3.2 | 0.00 | 0.43 | 0.00 | 64 | 1014.6 |
| 20260503015155 | 18 | 114 | 8.0 | 8.0 | 0.00 | 0.43 | 0.00 | 65 | 1014.6 |
| 20260503014950 | 18 | 120 | 8.0 | 11.3 | 0.00 | 0.43 | 0.00 | 65 | 1014.2 |
| 20260503014742 | 18 | 120 | 9.7 | 11.3 | 0.00 | 0.43 | 0.00 | 64 | 1014.6 |
| 20260503014537 | 18 | 118 | 6.4 | 9.7 | 0.00 | 0.43 | 0.00 | 63 | 1014.2 |
| 20260503014331 | 18 | 126 | 4.8 | 8.0 | 0.00 | 0.43 | 0.00 | 64 | 1013.9 |
| 20260503014125 | 18 | 112 | 8.0 | 9.7 | 0.00 | 0.43 | 0.00 | 63 | 1013.9 |
| 20260503014101 | 19 | 161 | 0.0 | 3.2 | 0.00 | 0.43 | 0.00 | 63 | 1013.5 |
| 20260503013642 | 19 | 146 | 4.8 | 8.0 | 0.00 | 0.43 | 0.00 | 62 | 1013.5 |
| 20260503013434 | 19 | 179 | 3.2 | 3.2 | 0.00 | 0.43 | 0.00 | 62 | 1013.5 |
| 20260503013230 | 19 | 102 | 3.2 | 3.2 | 0.00 | 0.43 | 0.00 | 62 | 1013.5 |
| 20260503013024 | 19 | 171 | 4.8 | 8.0 | 0.00 | 0.43 | 0.00 | 62 | 1013.5 |
| 20260503012819 | 19 | 102 | 4.8 | 4.8 | 0.00 | 0.43 | 0.00 | 62 | 1013.5 |
| 20260503012614 | 19 | 137 | 4.8 | 6.4 | 0.00 | 0.43 | 0.00 | 62 | 1013.5 |
| 20260503012552 | 19 | 146 | 4.8 | 8.0 | 0.00 | 0.43 | 0.00 | 62 | 1013.9 |
| 20260503012134 | 19 | 141 | 4.8 | 8.0 | 0.00 | 0.43 | 0.00 | 62 | 1013.5 |
| 20260503011930 | 19 | 170 | 6.4 | 8.0 | 0.00 | 0.43 | 0.00 | 61 | 1013.5 |
| 20260503011725 | 19 | 126 | 4.8 | 8.0 | 0.00 | 0.43 | 0.00 | 62 | 1013.9 |
| 20260503011519 | 19 | 71 | 4.8 | 8.0 | 0.00 | 0.43 | 0.00 | 61 | 1013.5 |
| 20260503011315 | 20 | 172 | 4.8 | 4.8 | 0.00 | 0.43 | 0.00 | 61 | 1013.5 |
| 20260503011111 | 20 | 105 | 1.6 | 3.2 | 0.00 | 0.43 | 0.00 | 62 | 1013.5 |
| 20260503010904 | 19 | 136 | 1.6 | 3.2 | 0.00 | 0.43 | 0.00 | 62 | 1013.5 |
| 20260503010658 | 20 | 189 | 6.4 | 8.0 | 0.00 | 0.43 | 0.00 | 61 | 1013.5 |
| 20260503010454 | 19 | 197 | 8.0 | 11.3 | 0.00 | 0.43 | 0.00 | 61 | 1013.5 |
| 20260503010249 | 20 | 172 | 6.4 | 8.0 | 0.00 | 0.43 | 0.00 | 61 | 1013.5 |
| 20260503010227 | 19 | 139 | 1.6 | 3.2 | 0.00 | 0.43 | 0.00 | 61 | 1013.5 |
| 20260503005809 | 20 | 152 | 3.2 | 4.8 | 0.43 | 0.43 | 0.00 | 61 | 1013.5 |
| 20260503005605 | 19 | 136 | 1.6 | 3.2 | 0.43 | 0.43 | 0.00 | 61 | 1013.5 |
| 20260503005401 | 20 | 122 | 6.4 | 8.0 | 0.43 | 0.43 | 0.00 | 61 | 1013.5 |
| 20260503005339 | 20 | 135 | 6.4 | 9.7 | 0.43 | 0.43 | 0.00 | 61 | 1013.2 |
| 20260503004920 | 20 | 101 | 6.4 | 8.0 | 0.43 | 0.43 | 0.00 | 62 | 1013.5 |
| 20260503004716 | 20 | 140 | 3.2 | 8.0 | 0.43 | 0.43 | 0.00 | 62 | 1013.2 |
| 20260503004512 | 19 | 144 | 4.8 | 6.4 | 0.43 | 0.43 | 0.00 | 63 | 1013.2 |
| 20260503004307 | 19 | 132 | 1.6 | 4.8 | 0.43 | 0.43 | 0.00 | 63 | 1013.5 |
| 20260502235152 | 19 | 101 | 3.2 | 3.2 | 0.00 | 0.43 | 0.00 | 62 | 1016.3 |
| 20260502234947 | 19 | 145 | 0.0 | 3.2 | 0.00 | 0.43 | 0.00 | 63 | 1016.3 |
| 20260502234739 | 19 | 136 | 4.8 | 6.4 | 0.00 | 0.43 | 0.00 | 62 | 1016.3 |
| 20260502234530 | 19 | 139 | 6.4 | 8.0 | 0.00 | 0.43 | 0.00 | 62 | 1016.3 |
| 20260502234315 | 19 | 146 | 4.8 | 8.0 | 0.00 | 0.43 | 0.00 | 62 | 1016.3 |
| 20260502234058 | 19 | 176 | 1.6 | 3.2 | 0.00 | 0.43 | 0.00 | 62 | 1016.6 |
| 20260502233845 | 19 | 135 | 6.4 | 8.0 | 0.00 | 0.43 | 0.00 | 62 | 1016.3 |
| 20260502233634 | 19 | 137 | 3.2 | 6.4 | 0.00 | 0.43 | 0.00 | 62 | 1016.3 |
| 20260502233420 | 19 | 157 | 3.2 | 4.8 | 0.00 | 0.43 | 0.00 | 61 | 1016.3 |
| 20260502233214 | 19 | 99 | 3.2 | 4.8 | 0.00 | 0.43 | 0.00 | 62 | 1016.3 |
| 20260502233008 | 19 | 144 | 3.2 | 3.2 | 0.00 | 0.43 | 0.00 | 62 | 1016.6 |
| 20260502232802 | 19 | 80 | 3.2 | 4.8 | 0.00 | 0.43 | 0.00 | 62 | 1016.6 |
| 20260502232558 | 19 | 98 | 0.0 | 1.6 | 0.00 | 0.43 | 0.00 | 62 | 1016.6 |
| 20260502232352 | 19 | 163 | 6.4 | 8.0 | 0.00 | 0.43 | 0.00 | 61 | 1016.6 |
| 20260502232135 | 19 | 135 | 8.0 | 9.7 | 0.00 | 0.43 | 0.00 | 60 | 1016.6 |
| 20260502231925 | 19 | 152 | 6.4 | 8.0 | 0.00 | 0.43 | 0.00 | 61 | 1016.6 |
| 20260502231710 | 19 | 136 | 8.0 | 9.7 | 0.00 | 0.43 | 0.00 | 60 | 1016.6 |
| 20260502231504 | 19 | 138 | 4.8 | 11.3 | 0.00 | 0.43 | 0.00 | 60 | 1016.9 |
| 20260502231250 | 19 | 136 | 6.4 | 8.0 | 0.00 | 0.43 | 0.00 | 62 | 1016.6 |
| 20260502231041 | 19 | 136 | 6.4 | 8.0 | 0.00 | 0.43 | 0.00 | 62 | 1016.6 |
| 20260502230835 | 19 | 136 | 6.4 | 8.0 | 0.00 | 0.43 | 0.00 | 62 | 1016.6 |
| 20260502230625 | 19 | 136 | 6.4 | 8.0 | 0.00 | 0.43 | 0.00 | 62 | 1016.9 |
| 20260502230407 | 19 | 138 | 11.3 | 12.9 | 0.00 | 0.43 | 0.00 | 61 | 1016.9 |
| 20260502230150 | 20 | 131 | 8.0 | 9.7 | 0.00 | 0.43 | 0.00 | 60 | 1017.3 |
| 20260502225942 | 19 | 146 | 6.4 | 11.3 | 0.00 | 0.43 | 0.00 | 60 | 1016.9 |
| 20260502225731 | 19 | 109 | 6.4 | 9.7 | 0.00 | 0.43 | 0.00 | 60 | 1016.9 |
| 20260502225517 | 20 | 128 | 8.0 | 8.0 | 0.00 | 0.43 | 0.00 | 59 | 1016.9 |
| 20260502225309 | 20 | 146 | 0.0 | 1.6 | 0.00 | 0.43 | 0.00 | 59 | 1016.9 |
| 20260502225103 | 20 | 142 | 3.2 | 3.2 | 0.00 | 0.43 | 0.00 | 59 | 1016.9 |
| 20260502225041 | 20 | 132 | 3.2 | 4.8 | 0.00 | 0.43 | 0.00 | 58 | 1016.9 |
| 20260502224615 | 20 | 129 | 3.2 | 6.4 | 0.00 | 0.43 | 0.00 | 57 | 1016.9 |
| 20260502224409 | 20 | 248 | 0.0 | 1.6 | 0.00 | 0.43 | 0.00 | 56 | 1016.9 |
| 20260502224204 | 20 | 82 | 1.6 | 3.2 | 0.00 | 0.43 | 0.00 | 58 | 1016.9 |
| 20260502223951 | 20 | 53 | 4.8 | 6.4 | 0.00 | 0.43 | 0.00 | 56 | 1016.9 |
| 20260502223746 | 20 | 96 | 1.6 | 3.2 | 0.00 | 0.43 | 0.00 | 56 | 1017.3 |
| 20260502223539 | 20 | 196 | 1.6 | 3.2 | 0.00 | 0.43 | 0.00 | 55 | 1016.9 |
| 20260502223516 | 20 | 211 | 1.6 | 3.2 | 0.00 | 0.43 | 0.00 | 55 | 1017.3 |
| 20260502223057 | 21 | 254 | 3.2 | 4.8 | 0.00 | 0.43 | 0.00 | 54 | 1016.9 |
| 20260502222853 | 21 | 209 | 3.2 | 3.2 | 0.00 | 0.43 | 0.00 | 56 | 1016.9 |
| 20260502222830 | 20 | 84 | 1.6 | 3.2 | 0.00 | 0.43 | 0.00 | 56 | 1017.3 |
| 20260502222410 | 20 | 179 | 4.8 | 6.4 | 0.00 | 0.43 | 0.00 | 57 | 1017.3 |
| 20260502222348 | 21 | 137 | 3.2 | 6.4 | 0.00 | 0.43 | 0.00 | 55 | 1017.3 |
| 20260502222108 | 21 | 98 | 1.6 | 3.2 | 0.00 | 0.43 | 0.00 | 56 | 1017.3 |
| 20260502221647 | 21 | 156 | 0.0 | 3.2 | 0.00 | 0.43 | 0.00 | 54 | 1017.3 |
| 20260502221626 | 20 | 250 | 0.0 | 0.0 | 0.00 | 0.43 | 0.00 | 55 | 1017.3 |
| 20260502221205 | 21 | 33 | 1.6 | 3.2 | 0.00 | 0.43 | 0.00 | 54 | 1017.6 |
| 20260502220958 | 20 | 160 | 0.0 | 0.0 | 0.00 | 0.43 | 0.00 | 56 | 1017.3 |
| 20260502220752 | 20 | 58 | 1.6 | 3.2 | 0.00 | 0.43 | 0.00 | 58 | 1017.6 |
| 20260502220547 | 20 | 254 | 0.0 | 1.6 | 0.00 | 0.43 | 0.00 | 57 | 1017.3 |
| 20260502220339 | 20 | 72 | 3.2 | 4.8 | 0.00 | 0.43 | 0.00 | 58 | 1017.6 |
| 20260502220123 | 19 | 131 | 3.2 | 3.2 | 0.00 | 0.43 | 0.00 | 59 | 1017.6 |
| 20260502215916 | 19 | 121 | 3.2 | 4.8 | 0.00 | 0.43 | 0.00 | 58 | 1017.6 |
| 20260502215709 | 19 | 187 | 4.8 | 4.8 | 0.00 | 0.43 | 0.00 | 57 | 1017.6 |
| 20260502215503 | 19 | 68 | 1.6 | 3.2 | 0.00 | 0.43 | 0.00 | 59 | 1017.6 |
| 20260502215256 | 19 | 105 | 3.2 | 4.8 | 0.00 | 0.43 | 0.00 | 57 | 1017.6 |
| 20260502215051 | 20 | 74 | 14.5 | 16.1 | 0.00 | 0.43 | 0.00 | 56 | 1017.9 |
| 20260502215029 | 19 | 157 | 3.2 | 3.2 | 0.00 | 0.43 | 0.00 | 57 | 1017.9 |
| 20260502214609 | 19 | 159 | 1.6 | 3.2 | 0.00 | 0.43 | 0.00 | 58 | 1017.9 |
| 20260502214358 | 19 | 88 | 1.6 | 3.2 | 0.00 | 0.43 | 0.00 | 59 | 1017.9 |
| 20260502214335 | 19 | 87 | 6.4 | 8.0 | 0.00 | 0.43 | 0.00 | 58 | 1017.6 |
| 20260502213915 | 18 | 138 | 0.0 | 0.0 | 0.00 | 0.43 | 0.00 | 59 | 1017.9 |
| 20260502213708 | 18 | 219 | 3.2 | 4.8 | 0.00 | 0.43 | 0.00 | 59 | 1017.9 |
| 20260502213645 | 18 | 350 | 6.4 | 8.0 | 0.00 | 0.43 | 0.00 | 61 | 1017.6 |
| 20260502213225 | 18 | 51 | 3.2 | 4.8 | 0.00 | 0.43 | 0.00 | 60 | 1017.9 |
| 20260502213203 | 18 | 112 | 1.6 | 3.2 | 0.00 | 0.43 | 0.00 | 60 | 1017.9 |
| 20260502212744 | 18 | 113 | 3.2 | 3.2 | 0.00 | 0.43 | 0.00 | 60 | 1018.3 |
| 20260502212535 | 18 | 220 | 1.6 | 3.2 | 0.00 | 0.43 | 0.00 | 60 | 1017.9 |
| 20260502212513 | 18 | 100 | 0.0 | 1.6 | 0.00 | 0.43 | 0.00 | 62 | 1017.9 |
| 20260502212056 | 17 | 93 | 1.6 | 3.2 | 0.00 | 0.43 | 0.00 | 62 | 1017.9 |
| 20260502211848 | 18 | 27 | 3.2 | 4.8 | 0.00 | 0.43 | 0.00 | 61 | 1017.9 |
| 20260502211643 | 18 | 46 | 4.8 | 8.0 | 0.00 | 0.43 | 0.00 | 60 | 1017.9 |
| 20260502211621 | 18 | 58 | 3.2 | 8.0 | 0.00 | 0.43 | 0.00 | 59 | 1017.9 |
| 20260502211202 | 18 | 210 | 0.0 | 3.2 | 0.00 | 0.43 | 0.00 | 60 | 1017.9 |
| 20260502210958 | 18 | 123 | 0.0 | 0.0 | 0.00 | 0.43 | 0.00 | 60 | 1018.3 |
| 20260502210935 | 18 | 96 | 1.6 | 3.2 | 0.00 | 0.43 | 0.00 | 59 | 1018.3 |
| 20260502210517 | 18 | 83 | 1.6 | 3.2 | 0.00 | 0.43 | 0.00 | 60 | 1018.3 |
| 20260502210312 | 18 | 62 | 4.8 | 8.0 | 0.00 | 0.43 | 0.00 | 60 | 1018.3 |
| 20260502210105 | 18 | 213 | 4.8 | 6.4 | 0.00 | 0.43 | 0.00 | 60 | 1018.3 |
| 20260502205856 | 18 | 72 | 1.6 | 3.2 | 0.00 | 0.43 | 0.00 | 60 | 1018.3 |
| 20260502205651 | 17 | 110 | 1.6 | 3.2 | 0.00 | 0.43 | 0.00 | 60 | 1017.9 |
| 20260502205447 | 17 | 227 | 4.8 | 6.4 | 0.00 | 0.43 | 0.00 | 61 | 1018.3 |
| 20260502205238 | 17 | 247 | 8.0 | 11.3 | 0.00 | 0.43 | 0.00 | 61 | 1018.3 |
| 20260502205032 | 17 | 226 | 1.6 | 3.2 | 0.00 | 0.43 | 0.00 | 62 | 1018.3 |
| 20260502204819 | 17 | 178 | 1.6 | 3.2 | 0.00 | 0.43 | 0.00 | 61 | 1018.3 |
| 20260502204610 | 17 | 197 | 6.4 | 8.0 | 0.00 | 0.43 | 0.00 | 61 | 1018.3 |
| 20260502204402 | 17 | 222 | 4.8 | 8.0 | 0.00 | 0.43 | 0.00 | 61 | 1018.6 |
| 20260502204152 | 17 | 214 | 4.8 | 4.8 | 0.00 | 0.43 | 0.00 | 62 | 1018.3 |
| 20260502203945 | 17 | 23 | 3.2 | 4.8 | 0.00 | 0.43 | 0.00 | 62 | 1018.6 |
| 20260502203736 | 17 | 31 | 4.8 | 4.8 | 0.00 | 0.43 | 0.00 | 60 | 1018.6 |
| 20260502203530 | 17 | 235 | 8.0 | 8.0 | 0.00 | 0.43 | 0.00 | 60 | 1018.6 |
| 20260502203507 | 17 | 129 | 0.0 | 0.0 | 0.00 | 0.43 | 0.00 | 61 | 1018.6 |
| 20260502203046 | 17 | 352 | 3.2 | 4.8 | 0.00 | 0.43 | 0.00 | 60 | 1018.6 |
| 20260502202841 | 17 | 202 | 4.8 | 8.0 | 0.00 | 0.43 | 0.00 | 61 | 1018.6 |
| 20260502202633 | 17 | 54 | 3.2 | 6.4 | 0.00 | 0.43 | 0.00 | 60 | 1018.6 |
| 20260502202426 | 17 | 301 | 3.2 | 4.8 | 0.00 | 0.43 | 0.00 | 60 | 1019.0 |
| 20260502202217 | 17 | 123 | 3.2 | 4.8 | 0.00 | 0.43 | 0.00 | 61 | 1019.0 |
| 20260502202007 | 17 | 304 | 3.2 | 6.4 | 0.00 | 0.43 | 0.00 | 62 | 1019.0 |
| 20260502201800 | 17 | 124 | 4.8 | 4.8 | 0.00 | 0.43 | 0.00 | 61 | 1019.0 |
| 20260502201551 | 17 | 250 | 12.9 | 14.5 | 0.00 | 0.43 | 0.00 | 61 | 1019.0 |
| 20260502201341 | 17 | 20 | 1.6 | 3.2 | 0.00 | 0.43 | 0.00 | 64 | 1019.0 |
| 20260502201131 | 16 | 9 | 6.4 | 8.0 | 0.00 | 0.43 | 0.00 | 64 | 1019.0 |
| 20260502201109 | 16 | 60 | 1.6 | 3.2 | 0.00 | 0.43 | 0.00 | 64 | 1019.0 |
| 20260502200640 | 16 | 127 | 1.6 | 3.2 | 0.00 | 0.43 | 0.00 | 64 | 1019.3 |
| 20260502200430 | 16 | 58 | 3.2 | 4.8 | 0.00 | 0.43 | 0.00 | 63 | 1019.0 |
| 20260502200215 | 16 | 177 | 0.0 | 1.6 | 0.00 | 0.43 | 0.00 | 66 | 1019.3 |
| 20260502200001 | 16 | 90 | 0.0 | 3.2 | 0.00 | 0.43 | 0.00 | 66 | 1019.3 |